Weather in Kaytanak

Russia / Altai Republic     50°09′09″N   85°27′52″E
temp.,
°C
wind,
m/s
gust,
m/s
humid.,
%
clouds,
%
prec.,
mm/h
press.,
hPa
HPBL,
m
15 may, sat
sat1501:00+3n129354 0.2 1025105
04:00+3se1188100 0.0 102535
07:00+4e118232 0.0 1026100
10:00+8e126424 0.0 1025871
13:00+12se22485 0.0 10231349
16:00+14sse234329 0.0 10211676
19:00+13sse124921 0.0 1021752
22:00+8se01685 0.0 102312
16 may, sun
sun1601:00+6sse01735 0.0 102311
04:00+5s01780 0.0 102411
07:00+6se11750 0.0 102358
10:00+12sse11562 0.0 1020485
13:00+17s11373 0.0 10181376
16:00+19sw022918 0.0 10162278
19:00+17wsw233721 0.0 10151247
22:00+12ssw126292 0.0 101737
17 may, mon
mon1701:00+9w11735 0.0 101712
04:00+7sw11785 0.0 101712
07:00+9s11745 0.0 101765
10:00+14wnw245472 0.6 10161142
13:00+10ssw228299 3.1 1018273
16:00+15ssw125894 0.7 10151248
19:00+13wsw11665 1.6 1015510
22:00+9n118313 1.1 101713
18 may, tue
tue1801:00+7nw01875 1.1 101711
04:00+6nw11901 0.0 101710
07:00+8ese00850 0.0 101765
10:00+13sw01675 0.0 1015620
13:00+17sw234328 0.0 10131822
16:00+17nw564497 0.1 10112040
19:00+16w3553100 0.5 1011328
22:00+10nw237997 0.8 101354
19 may, wed
wed1901:00+8w11865 0.9 101316
04:00+7sw018799 0.0 101112
07:00+8s118153 0.0 101079
10:00+13s1361100 0.1 1007672
13:00+14sw61160100 1.5 10041872
16:00+12w477387 1.9 1004858
19:00+12wsw3572100 3.8 1003737
22:00+8ese118742 3.3 100380